THORAD AGENA D DEB, 4716

Orbit data source: Space-Track

THORAD AGENA D DEB, 4716 is space debris in SSO originally from a launch on Wed, 08 Apr 1970 UTC launched from the Air Force Western Test Range (AFWTR). Debris objects in space refer to the collection of defunct objects orbiting the Earth. Examples of debris include non-operational satellites, rocket bodies, and fragments generated from explosions, collisions, or faulty payload assembly.

Loading next visibility...
Identifier
4716, 1970-025CA
Orbit
SSO
Country
Flag of USUS
Related business
Manufacturer
Unknown
Mission
Spacecraft
Bus & Motor
Unknown
Mass
Unknown
Launch date (UTC)
1970-04-08 (56 years ago)
Launch vehicle
Unknown
Launch site
Air Force Western Test Range (AFWTR)
Object type
Payload
Rocket body
Debris
Shape & HBR
Unknown shape, 0.3 m
Radar Cross Section
Medium (>0.1 m² and <1 m²)

Expand to show TLE details & history
Last TLE update: 11 hours ago

TLE from 11 hours ago
0 THORAD AGENA D DEB
1  4716U 70025CA  26036.33556106  .00002740  00000-0  16973-2 0  9999
2  4716  99.9594 175.4066 0004613 289.6308  99.9047 14.06173389806974
Epoch: 2026-02-05T08:03Z
TLE epoch observation values (Epoch: 2026-02-05T08:03:12.475Z)
Latitude
29.1471°
Longitude
-86.47467°
Altitude
876.63 km
Speed
7.416 km/s
True Right ascension
11h 19m 15s
True Declination
29° 00' 12"
Sunlit
Object was in full shadow at epoch
Visualization orbit readout
Latitude
Unknown
Longitude
Unknown
Altitude
Unknown
Speed
Unknown
Apparent Right ascension
Unknown
Apparent Declination
Unknown
Sunlit
N/A
Visualization observer readout
Local Sidereal Time
21:29:19
Azimuth
Unknown
Elevation
Unknown
Doppler factor
Unknown
Orbital elements
Apogee altitude
873.08 km
Perigee altitude
866.393 km
Semi-major axis
7,247.874 km
Eccentricity
0.00046
Inclination
99.9594°
RAAN
175.4066°
Arg. of periapsis
289.6308°
True anomaly
99.95677°
Mean anomaly
99.9047°
Eccentric anomaly
99.93073°
Mean motion
3.51744 °/min
Orbital period
102.35 mins
BSTAR
0.0016973
Loading maneuver chart data...
Computing Atmospheric mass density...

Documentation

Showing up to 5 results
|